| time (UTC) | temp C | wind direction | speed KPH | gust KPH | rain 1hr cm | rain 24hr cm | rain mn cm | humidity % | barometer mb |
| 20260507115152 | 12 | 304 | 0.0 | 0.0 | 0.00 | 0.43 | 0.43 | 81 | 1013.6 |
| 20260507114648 | 12 | 304 | 0.0 | 0.0 | 0.00 | 0.43 | 0.43 | 82 | 1013.2 |
| 20260507114145 | 12 | 304 | 0.0 | 0.0 | 0.00 | 0.43 | 0.43 | 82 | 1013.4 |
| 20260507113643 | 12 | 304 | 0.0 | 0.0 | 0.00 | 0.43 | 0.43 | 82 | 1013.3 |
| 20260507113140 | 12 | 304 | 0.0 | 0.0 | 0.00 | 0.43 | 0.43 | 83 | 1013.2 |
| 20260507112638 | 12 | 304 | 0.0 | 0.0 | 0.00 | 0.43 | 0.43 | 82 | 1013.1 |
| 20260507112134 | 12 | 304 | 0.0 | 0.0 | 0.00 | 0.43 | 0.43 | 83 | 1013.2 |
| 20260507111631 | 12 | 304 | 0.0 | 0.0 | 0.00 | 0.43 | 0.43 | 83 | 1013.1 |
| 20260507111128 | 12 | 304 | 0.0 | 1.6 | 0.00 | 0.43 | 0.43 | 84 | 1013.0 |
| 20260507110624 | 12 | 304 | 0.0 | 0.0 | 0.00 | 0.43 | 0.43 | 85 | 1013.0 |
| 20260507110121 | 11 | 304 | 0.0 | 0.0 | 0.00 | 0.43 | 0.43 | 85 | 1013.1 |
| 20260507105618 | 12 | 304 | 1.6 | 3.2 | 0.00 | 0.43 | 0.43 | 87 | 1013.0 |
| 20260507105113 | 11 | 304 | 0.0 | 0.0 | 0.00 | 0.43 | 0.43 | 89 | 1013.2 |
| 20260507104611 | 12 | 304 | 0.0 | 0.0 | 0.00 | 0.43 | 0.43 | 90 | 1013.1 |
| 20260507104108 | 12 | 304 | 0.0 | 0.0 | 0.00 | 0.43 | 0.43 | 91 | 1012.8 |
| 20260507103604 | 12 | 304 | 0.0 | 0.0 | 0.00 | 0.43 | 0.43 | 91 | 1012.5 |
| 20260507103100 | 12 | 304 | 0.0 | 0.0 | 0.00 | 0.43 | 0.43 | 92 | 1012.6 |
| 20260507102557 | 12 | 304 | 0.0 | 0.0 | 0.00 | 0.43 | 0.43 | 92 | 1012.6 |
| 20260507102053 | 12 | 304 | 0.0 | 0.0 | 0.00 | 0.43 | 0.43 | 92 | 1012.6 |
| 20260507101548 | 11 | 304 | 0.0 | 0.0 | 0.00 | 0.43 | 0.43 | 92 | 1012.5 |
| 20260507101045 | 11 | 304 | 0.0 | 0.0 | 0.00 | 0.43 | 0.43 | 92 | 1012.7 |
| 20260507100543 | 11 | 304 | 0.0 | 0.0 | 0.00 | 0.43 | 0.43 | 93 | 1012.6 |
| 20260507100041 | 11 | 304 | 0.0 | 0.0 | 0.00 | 0.43 | 0.43 | 93 | 1012.5 |
| 20260507095538 | 11 | 304 | 0.0 | 0.0 | 0.00 | 0.43 | 0.43 | 93 | 1012.5 |
| 20260507095034 | 12 | 304 | 0.0 | 0.0 | 0.00 | 0.43 | 0.43 | 94 | 1012.5 |
| 20260507094531 | 12 | 304 | 0.0 | 0.0 | 0.00 | 0.43 | 0.43 | 94 | 1012.5 |
| 20260507094028 | 12 | 304 | 0.0 | 0.0 | 0.00 | 0.43 | 0.43 | 94 | 1012.3 |
| 20260507093526 | 12 | 304 | 0.0 | 0.0 | 0.00 | 0.43 | 0.43 | 94 | 1012.6 |
| 20260507093024 | 12 | 304 | 0.0 | 0.0 | 0.00 | 0.43 | 0.43 | 94 | 1012.3 |
| 20260507092520 | 12 | 304 | 0.0 | 0.0 | 0.00 | 0.43 | 0.43 | 94 | 1012.4 |
| 20260507092017 | 12 | 304 | 0.0 | 0.0 | 0.00 | 0.43 | 0.43 | 93 | 1012.6 |
| 20260507091514 | 12 | 304 | 0.0 | 0.0 | 0.00 | 0.43 | 0.43 | 93 | 1012.8 |
| 20260507091010 | 12 | 304 | 0.0 | 0.0 | 0.00 | 0.43 | 0.43 | 93 | 1012.4 |
| 20260507090505 | 11 | 304 | 0.0 | 0.0 | 0.00 | 0.43 | 0.43 | 93 | 1012.4 |
| 20260507090002 | 11 | 304 | 0.0 | 0.0 | 0.00 | 0.43 | 0.43 | 93 | 1012.5 |
| 20260507085459 | 11 | 304 | 0.0 | 0.0 | 0.00 | 0.43 | 0.43 | 93 | 1012.2 |
| 20260507084956 | 12 | 304 | 0.0 | 0.0 | 0.00 | 0.43 | 0.43 | 93 | 1012.2 |
| 20260507084453 | 12 | 304 | 0.0 | 0.0 | 0.00 | 0.43 | 0.43 | 93 | 1012.0 |
| 20260507083950 | 12 | 304 | 1.6 | 3.2 | 0.00 | 0.43 | 0.43 | 93 | 1012.5 |
| 20260507083446 | 12 | 304 | 0.0 | 0.0 | 0.00 | 0.43 | 0.43 | 93 | 1012.6 |
| 20260507082943 | 12 | 304 | 0.0 | 0.0 | 0.00 | 0.43 | 0.43 | 92 | 1012.3 |
| 20260507082439 | 12 | 304 | 1.6 | 1.6 | 0.00 | 0.43 | 0.43 | 92 | 1012.2 |
| 20260507081935 | 12 | 304 | 0.0 | 1.6 | 0.00 | 0.43 | 0.43 | 91 | 1012.0 |
| 20260507081432 | 12 | 304 | 0.0 | 0.0 | 0.00 | 0.43 | 0.43 | 91 | 1011.9 |
| 20260507080929 | 12 | 304 | 3.2 | 3.2 | 0.00 | 0.43 | 0.43 | 91 | 1011.7 |
| 20260507080425 | 12 | 304 | 0.0 | 1.6 | 0.00 | 0.43 | 0.43 | 91 | 1011.7 |
| 20260507075920 | 12 | 304 | 0.0 | 0.0 | 0.00 | 0.43 | 0.43 | 92 | 1011.5 |
| 20260507075416 | 12 | 304 | 1.6 | 3.2 | 0.00 | 0.43 | 0.43 | 94 | 1011.5 |
| 20260507074913 | 12 | 304 | 0.0 | 0.0 | 0.00 | 0.43 | 0.43 | 96 | 1011.6 |
| 20260507074410 | 12 | 304 | 1.6 | 1.6 | 0.00 | 0.43 | 0.43 | 96 | 1011.3 |
| 20260507073908 | 12 | 304 | 3.2 | 3.2 | 0.00 | 0.43 | 0.43 | 97 | 1011.1 |
| 20260507073404 | 12 | 304 | 0.0 | 0.0 | 0.00 | 0.43 | 0.43 | 97 | 1011.1 |
| 20260507072901 | 12 | 304 | 0.0 | 1.6 | 0.00 | 0.43 | 0.43 | 97 | 1011.2 |
| 20260507072359 | 12 | 304 | 1.6 | 1.6 | 0.00 | 0.43 | 0.43 | 97 | 1011.1 |
| 20260507071856 | 12 | 304 | 3.2 | 4.8 | 0.00 | 0.43 | 0.43 | 98 | 1011.1 |
| 20260507071353 | 13 | 304 | 0.0 | 0.0 | 0.00 | 0.43 | 0.43 | 98 | 1011.0 |
| 20260507070849 | 13 | 304 | 1.6 | 1.6 | 0.00 | 0.43 | 0.43 | 98 | 1011.1 |
| 20260507070347 | 12 | 304 | 0.0 | 0.0 | 0.00 | 0.43 | 0.43 | 97 | 1011.2 |
| 20260507065843 | 13 | 304 | 1.6 | 1.6 | 0.00 | 0.43 | 0.43 | 97 | 1011.3 |
| 20260507065340 | 13 | 304 | 0.0 | 0.0 | 0.00 | 0.43 | 0.43 | 97 | 1011.2 |
| 20260507064837 | 12 | 304 | 4.8 | 9.7 | 0.00 | 0.43 | 0.43 | 97 | 1011.5 |
| 20260507064336 | 13 | 304 | 1.6 | 1.6 | 0.00 | 0.43 | 0.43 | 97 | 1011.3 |
| 20260507063833 | 13 | 304 | 0.0 | 0.0 | 0.00 | 0.43 | 0.43 | 97 | 1011.1 |
| 20260507063330 | 13 | 304 | 3.2 | 3.2 | 0.00 | 0.43 | 0.43 | 97 | 1011.1 |
| 20260507062826 | 13 | 304 | 1.6 | 1.6 | 0.00 | 0.43 | 0.43 | 97 | 1010.8 |
| 20260507062323 | 13 | 304 | 1.6 | 4.8 | 0.00 | 0.43 | 0.43 | 97 | 1010.7 |
| 20260507061822 | 13 | 304 | 0.0 | 1.6 | 0.00 | 0.43 | 0.43 | 97 | 1010.6 |
| 20260507061319 | 13 | 304 | 1.6 | 1.6 | 0.00 | 0.43 | 0.43 | 97 | 1010.9 |
| 20260507060818 | 13 | 304 | 1.6 | 1.6 | 0.00 | 0.43 | 0.43 | 97 | 1010.8 |
| 20260507060314 | 13 | 304 | 1.6 | 1.6 | 0.00 | 0.43 | 0.43 | 97 | 1010.8 |
| 20260507055811 | 13 | 304 | 1.6 | 3.2 | 0.00 | 0.43 | 0.43 | 96 | 1011.1 |
| 20260507055306 | 13 | 304 | 6.4 | 9.7 | 0.00 | 0.43 | 0.43 | 96 | 1011.0 |
| 20260507054802 | 13 | 304 | 3.2 | 3.2 | 0.00 | 0.43 | 0.43 | 96 | 1011.2 |
| 20260507054259 | 14 | 304 | 4.8 | 4.8 | 0.18 | 0.43 | 0.43 | 97 | 1011.2 |
| 20260507053756 | 14 | 304 | 0.0 | 0.0 | 0.18 | 0.43 | 0.43 | 97 | 1010.9 |
| 20260507053254 | 14 | 304 | 0.0 | 0.0 | 0.18 | 0.41 | 0.41 | 97 | 1010.7 |
| 20260507052753 | 14 | 304 | 0.0 | 0.0 | 0.48 | 0.41 | 0.41 | 96 | 1010.8 |
| 20260507052249 | 15 | 304 | 0.0 | 0.0 | 0.71 | 0.38 | 0.38 | 96 | 1011.0 |
| 20260507051747 | 15 | 304 | 1.6 | 1.6 | 0.71 | 0.33 | 0.33 | 95 | 1011.2 |
| 20260507051243 | 15 | 304 | 3.2 | 3.2 | 0.61 | 0.28 | 0.28 | 95 | 1011.4 |
| 20260507050740 | 15 | 305 | 3.2 | 3.2 | 0.61 | 0.20 | 0.20 | 94 | 1011.4 |
| 20260507050237 | 15 | 306 | 0.0 | 0.0 | 0.79 | 0.18 | 0.18 | 93 | 1011.2 |
| 20260507045734 | 15 | 307 | 1.6 | 3.2 | 0.48 | 0.10 | 0.10 | 90 | 1011.1 |
| 20260507045230 | 15 | 306 | 0.0 | 0.0 | 0.13 | 0.05 | 0.05 | 87 | 1010.8 |
| 20260507044727 | 16 | 304 | 0.0 | 0.0 | 0.00 | 0.03 | 0.03 | 86 | 1011.2 |
| 20260507044224 | 16 | 304 | 0.0 | 0.0 | 0.18 | 0.03 | 0.03 | 85 | 1011.2 |
| 20260507043720 | 16 | 304 | 1.6 | 3.2 | 0.18 | 0.03 | 0.03 | 82 | 1011.2 |
| 20260507043217 | 17 | 304 | 4.8 | 4.8 | 0.00 | 0.00 | 0.00 | 79 | 1011.4 |
| 20260507042713 | 17 | 304 | 4.8 | 4.8 | 0.00 | 0.00 | 0.00 | 79 | 1011.1 |
| 20260507042208 | 17 | 304 | 1.6 | 3.2 | 0.00 | 0.00 | 0.00 | 80 | 1011.2 |
| 20260507041706 | 17 | 304 | 9.7 | 12.9 | 0.00 | 0.00 | 0.00 | 80 | 1011.2 |
| 20260507041202 | 17 | 304 | 4.8 | 4.8 | 0.00 | 0.00 | 0.00 | 81 | 1011.2 |
| 20260507040659 | 17 | 304 | 1.6 | 1.6 | 0.00 | 0.00 | 0.00 | 81 | 1010.7 |
| 20260507040155 | 17 | 304 | 4.8 | 4.8 | 0.00 | 0.00 | 0.00 | 84 | 1010.7 |
| 20260507035651 | 17 | 304 | 0.0 | 1.6 | 0.00 | 0.41 | 0.41 | 86 | 1010.7 |
| 20260507035148 | 17 | 304 | 1.6 | 3.2 | 0.00 | 0.41 | 0.41 | 86 | 1010.9 |
| 20260507034644 | 18 | 304 | 1.6 | 3.2 | 0.00 | 0.41 | 0.41 | 89 | 1010.8 |
| 20260507034142 | 18 | 304 | 3.2 | 3.2 | 0.00 | 0.41 | 0.41 | 89 | 1010.6 |
| 20260507033640 | 18 | 304 | 3.2 | 3.2 | 0.00 | 0.41 | 0.41 | 88 | 1010.8 |
| 20260507033137 | 18 | 305 | 6.4 | 8.0 | 0.00 | 0.41 | 0.41 | 87 | 1010.6 |
| 20260507032635 | 18 | 309 | 1.6 | 1.6 | 0.00 | 0.41 | 0.41 | 87 | 1010.3 |
| 20260507032130 | 18 | 313 | 4.8 | 8.0 | 0.00 | 0.41 | 0.41 | 87 | 1010.4 |
| 20260507031627 | 18 | 318 | 3.2 | 3.2 | 0.00 | 0.41 | 0.41 | 86 | 1010.3 |
| 20260507031124 | 18 | 323 | 3.2 | 3.2 | 0.00 | 0.41 | 0.41 | 86 | 1010.3 |
| 20260507030621 | 18 | 329 | 0.0 | 1.6 | 0.00 | 0.41 | 0.41 | 85 | 1010.2 |
| 20260507030118 | 18 | 338 | 4.8 | 9.7 | 0.00 | 0.41 | 0.41 | 86 | 1010.4 |
| 20260507025616 | 18 | 346 | 4.8 | 4.8 | 0.00 | 0.41 | 0.41 | 87 | 1010.2 |
| 20260507025112 | 18 | 352 | 3.2 | 3.2 | 0.00 | 0.41 | 0.41 | 87 | 1010.1 |
| 20260507024611 | 18 | 359 | 3.2 | 3.2 | 0.00 | 0.41 | 0.41 | 88 | 1010.0 |
| 20260507024107 | 18 | 7 | 3.2 | 3.2 | 0.00 | 0.41 | 0.41 | 88 | 1010.2 |
| 20260507023603 | 18 | 22 | 3.2 | 3.2 | 0.00 | 0.41 | 0.41 | 90 | 1010.0 |
| 20260507023101 | 18 | 28 | 0.0 | 0.0 | 0.00 | 0.41 | 0.41 | 90 | 1009.8 |
| 20260507022557 | 18 | 33 | 0.0 | 0.0 | 0.00 | 0.41 | 0.41 | 90 | 1009.8 |
| 20260507022052 | 18 | 41 | 0.0 | 0.0 | 0.00 | 0.41 | 0.41 | 90 | 1009.7 |
| 20260507021549 | 18 | 46 | 0.0 | 0.0 | 0.00 | 0.41 | 0.41 | 90 | 1009.6 |
| 20260507021045 | 18 | 52 | 0.0 | 0.0 | 0.00 | 0.41 | 0.41 | 90 | 1009.6 |
| 20260507020543 | 18 | 61 | 0.0 | 0.0 | 0.00 | 0.41 | 0.41 | 90 | 1009.6 |
| 20260507020034 | 18 | 64 | 0.0 | 0.0 | 0.00 | 0.41 | 0.41 | 90 | 1009.7 |
| 20260507015532 | 18 | 65 | 0.0 | 0.0 | 0.00 | 0.41 | 0.41 | 89 | 1009.7 |
| 20260507015029 | 18 | 67 | 0.0 | 0.0 | 0.00 | 0.41 | 0.41 | 88 | 1009.6 |
| 20260507014526 | 18 | 70 | 0.0 | 0.0 | 0.00 | 0.41 | 0.41 | 88 | 1009.6 |
| 20260507014021 | 18 | 73 | 0.0 | 0.0 | 0.00 | 0.41 | 0.41 | 89 | 1009.8 |
| 20260507013518 | 18 | 76 | 0.0 | 0.0 | 0.00 | 0.41 | 0.41 | 89 | 1009.9 |
| 20260507013016 | 18 | 79 | 0.0 | 0.0 | 0.00 | 0.41 | 0.41 | 89 | 1010.1 |
| 20260507012512 | 18 | 81 | 0.0 | 0.0 | 0.00 | 0.41 | 0.41 | 89 | 1010.3 |
| 20260507012009 | 18 | 83 | 0.0 | 0.0 | 0.00 | 0.41 | 0.41 | 89 | 1010.4 |
| 20260507011506 | 18 | 86 | 0.0 | 0.0 | 0.00 | 0.41 | 0.41 | 89 | 1010.4 |
| 20260507011002 | 18 | 89 | 0.0 | 0.0 | 0.00 | 0.41 | 0.41 | 89 | 1010.2 |
| 20260507010456 | 18 | 91 | 0.0 | 0.0 | 0.00 | 0.41 | 0.41 | 89 | 1010.2 |
| 20260507005954 | 18 | 94 | 0.0 | 0.0 | 0.00 | 0.41 | 0.41 | 89 | 1010.0 |
| 20260507005451 | 18 | 96 | 0.0 | 0.0 | 0.00 | 0.41 | 0.41 | 89 | 1010.0 |
| 20260507004947 | 18 | 97 | 0.0 | 0.0 | 0.00 | 0.41 | 0.41 | 88 | 1009.6 |
| 20260507004444 | 18 | 97 | 0.0 | 0.0 | 0.00 | 0.41 | 0.41 | 88 | 1009.6 |
| 20260507003942 | 18 | 99 | 0.0 | 0.0 | 0.00 | 0.41 | 0.41 | 88 | 1009.8 |
| 20260507003437 | 18 | 100 | 0.0 | 0.0 | 0.00 | 0.41 | 0.41 | 87 | 1009.9 |
| 20260507002932 | 19 | 100 | 0.0 | 0.0 | 0.00 | 0.41 | 0.41 | 87 | 1009.9 |
| 20260507002428 | 19 | 100 | 0.0 | 0.0 | 0.00 | 0.41 | 0.41 | 86 | 1009.6 |
| 20260507001926 | 19 | 101 | 0.0 | 0.0 | 0.00 | 0.41 | 0.41 | 85 | 1009.6 |
| 20260507001422 | 20 | 101 | 0.0 | 0.0 | 0.00 | 0.41 | 0.41 | 85 | 1009.5 |
| 20260507000920 | 20 | 102 | 0.0 | 0.0 | 0.00 | 0.41 | 0.41 | 85 | 1009.8 |
| 20260507000415 | 20 | 102 | 0.0 | 0.0 | 0.00 | 0.41 | 0.41 | 84 | 1009.8 |
| 20260506235911 | 20 | 102 | 0.0 | 0.0 | 0.00 | 0.41 | 0.41 | 83 | 1009.5 |
| 20260506235409 | 20 | 101 | 0.0 | 0.0 | 0.00 | 0.41 | 0.41 | 83 | 1009.5 |
| 20260506234904 | 20 | 99 | 0.0 | 0.0 | 0.00 | 0.41 | 0.41 | 83 | 1009.5 |
| 20260506234402 | 20 | 100 | 0.0 | 0.0 | 0.00 | 0.41 | 0.41 | 83 | 1009.4 |
| 20260506233859 | 20 | 99 | 0.0 | 0.0 | 0.00 | 0.41 | 0.41 | 83 | 1009.2 |
| 20260506233355 | 20 | 98 | 0.0 | 0.0 | 0.00 | 0.41 | 0.41 | 83 | 1009.4 |
| 20260506232852 | 20 | 93 | 0.0 | 0.0 | 0.00 | 0.41 | 0.41 | 82 | 1009.1 |
| 20260506232348 | 20 | 90 | 0.0 | 0.0 | 0.00 | 0.41 | 0.41 | 82 | 1009.2 |
| 20260506231844 | 20 | 81 | 0.0 | 0.0 | 0.00 | 0.41 | 0.41 | 81 | 1009.1 |
| 20260506231342 | 20 | 73 | 0.0 | 0.0 | 0.00 | 0.41 | 0.41 | 81 | 1009.3 |
| 20260506230839 | 20 | 57 | 0.0 | 0.0 | 0.00 | 0.41 | 0.41 | 80 | 1009.0 |
| 20260506230336 | 20 | 34 | 0.0 | 0.0 | 0.00 | 0.41 | 0.41 | 80 | 1009.0 |
| 20260506225832 | 20 | 28 | 1.6 | 1.6 | 0.00 | 0.41 | 0.41 | 81 | 1009.3 |
| 20260506225330 | 20 | 12 | 0.0 | 0.0 | 0.00 | 0.41 | 0.41 | 80 | 1009.2 |
| 20260506224827 | 20 | 355 | 0.0 | 0.0 | 0.00 | 0.41 | 0.41 | 80 | 1009.2 |
| 20260506224324 | 20 | 343 | 1.6 | 3.2 | 0.00 | 0.41 | 0.41 | 80 | 1009.0 |
| 20260506223820 | 21 | 348 | 3.2 | 3.2 | 0.00 | 0.41 | 0.41 | 79 | 1009.0 |
| 20260506223309 | 21 | 345 | 0.0 | 0.0 | 0.00 | 0.41 | 0.41 | 79 | 1008.8 |
| 20260506222807 | 21 | 337 | 1.6 | 3.2 | 0.00 | 0.41 | 0.41 | 79 | 1008.9 |
| 20260506222305 | 21 | 323 | 1.6 | 1.6 | 0.00 | 0.41 | 0.41 | 79 | 1009.1 |
| 20260506221800 | 21 | 323 | 4.8 | 4.8 | 0.00 | 0.41 | 0.41 | 79 | 1009.1 |
| 20260506221258 | 21 | 322 | 1.6 | 3.2 | 0.00 | 0.41 | 0.41 | 79 | 1009.1 |
| 20260506220755 | 21 | 323 | 4.8 | 4.8 | 0.00 | 0.41 | 0.41 | 79 | 1009.2 |
| 20260506220250 | 21 | 318 | 6.4 | 8.0 | 0.00 | 0.41 | 0.41 | 78 | 1008.8 |
| 20260506215747 | 21 | 313 | 3.2 | 4.8 | 0.00 | 0.41 | 0.41 | 78 | 1009.0 |
| 20260506215242 | 21 | 308 | 1.6 | 3.2 | 0.00 | 0.41 | 0.41 | 78 | 1009.1 |
| 20260506214733 | 21 | 307 | 1.6 | 3.2 | 0.00 | 0.41 | 0.41 | 78 | 1009.2 |
| 20260506214230 | 21 | 306 | 1.6 | 3.2 | 0.00 | 0.41 | 0.41 | 80 | 1009.2 |
| 20260506213728 | 21 | 308 | 4.8 | 4.8 | 0.00 | 0.41 | 0.41 | 78 | 1009.0 |
| 20260506213226 | 21 | 307 | 1.6 | 3.2 | 0.00 | 0.41 | 0.41 | 78 | 1009.1 |
| 20260506212723 | 21 | 304 | 0.0 | 0.0 | 0.00 | 0.41 | 0.41 | 78 | 1009.1 |
| 20260506212218 | 21 | 304 | 6.4 | 12.9 | 0.00 | 0.41 | 0.41 | 77 | 1008.7 |
| 20260506211714 | 21 | 306 | 8.0 | 11.3 | 0.00 | 0.41 | 0.41 | 77 | 1008.9 |
| 20260506211210 | 21 | 307 | 4.8 | 4.8 | 0.00 | 0.41 | 0.41 | 78 | 1009.0 |
| 20260506210707 | 21 | 310 | 6.4 | 8.0 | 0.00 | 0.41 | 0.41 | 78 | 1008.8 |
| 20260506210204 | 21 | 311 | 4.8 | 8.0 | 0.00 | 0.41 | 0.41 | 78 | 1008.8 |
| 20260506205701 | 21 | 308 | 4.8 | 8.0 | 0.00 | 0.41 | 0.41 | 79 | 1008.6 |
| 20260506205156 | 21 | 306 | 3.2 | 4.8 | 0.00 | 0.41 | 0.41 | 79 | 1008.7 |
| 20260506204654 | 21 | 311 | 6.4 | 11.3 | 0.00 | 0.41 | 0.41 | 79 | 1008.7 |
| 20260506204151 | 21 | 313 | 1.6 | 3.2 | 0.00 | 0.41 | 0.41 | 79 | 1008.6 |
| 20260506203649 | 21 | 307 | 0.0 | 1.6 | 0.00 | 0.41 | 0.41 | 78 | 1008.7 |
| 20260506203146 | 21 | 309 | 3.2 | 4.8 | 0.00 | 0.41 | 0.41 | 79 | 1008.8 |
| 20260506202644 | 21 | 315 | 12.9 | 16.1 | 0.00 | 0.41 | 0.41 | 78 | 1008.7 |
| 20260506202139 | 21 | 313 | 3.2 | 4.8 | 0.00 | 0.41 | 0.41 | 79 | 1008.5 |
| 20260506201636 | 21 | 310 | 3.2 | 4.8 | 0.00 | 0.41 | 0.41 | 78 | 1008.6 |
| 20260506201133 | 21 | 307 | 4.8 | 8.0 | 0.00 | 0.41 | 0.41 | 79 | 1008.9 |
| 20260506200629 | 21 | 309 | 6.4 | 9.7 | 0.00 | 0.41 | 0.41 | 79 | 1008.7 |
| 20260506200127 | 21 | 311 | 8.0 | 9.7 | 0.00 | 0.41 | 0.41 | 79 | 1008.6 |
| 20260506195623 | 21 | 313 | 1.6 | 3.2 | 0.00 | 0.41 | 0.41 | 80 | 1008.7 |
| 20260506195119 | 21 | 313 | 4.8 | 8.0 | 0.00 | 0.41 | 0.41 | 79 | 1008.6 |
| 20260506194617 | 21 | 311 | 6.4 | 8.0 | 0.00 | 0.41 | 0.41 | 78 | 1008.7 |
| 20260506194113 | 21 | 308 | 1.6 | 3.2 | 0.00 | 0.41 | 0.41 | 79 | 1008.6 |
| 20260506193611 | 21 | 309 | 12.9 | 20.9 | 0.00 | 0.41 | 0.41 | 78 | 1008.8 |
| 20260506193108 | 21 | 317 | 1.6 | 1.6 | 0.00 | 0.41 | 0.41 | 77 | 1008.8 |
| 20260506192605 | 21 | 315 | 6.4 | 9.7 | 0.00 | 0.41 | 0.41 | 78 | 1008.8 |
| 20260506192101 | 20 | 318 | 4.8 | 8.0 | 0.00 | 0.41 | 0.41 | 78 | 1009.0 |
| 20260506191557 | 20 | 318 | 11.3 | 14.5 | 0.00 | 0.41 | 0.41 | 79 | 1008.9 |
| 20260506191053 | 20 | 319 | 3.2 | 4.8 | 0.00 | 0.41 | 0.41 | 80 | 1009.1 |
| 20260506190551 | 20 | 319 | 3.2 | 3.2 | 0.00 | 0.41 | 0.41 | 79 | 1009.0 |
| 20260506190048 | 20 | 317 | 3.2 | 4.8 | 0.00 | 0.41 | 0.41 | 79 | 1009.2 |
| 20260506185545 | 20 | 315 | 3.2 | 3.2 | 0.00 | 0.41 | 0.41 | 79 | 1009.0 |
| 20260506185041 | 20 | 314 | 1.6 | 3.2 | 0.00 | 0.41 | 0.41 | 80 | 1009.2 |
| 20260506184539 | 20 | 315 | 8.0 | 9.7 | 0.00 | 0.41 | 0.41 | 79 | 1009.3 |
| 20260506184036 | 20 | 313 | 8.0 | 9.7 | 0.00 | 0.41 | 0.41 | 79 | 1009.3 |
| 20260506183532 | 20 | 314 | 4.8 | 4.8 | 0.00 | 0.41 | 0.41 | 78 | 1009.0 |
| 20260506183029 | 20 | 313 | 0.0 | 1.6 | 0.00 | 0.41 | 0.41 | 79 | 1009.5 |
| 20260506182526 | 20 | 310 | 1.6 | 1.6 | 0.00 | 0.41 | 0.41 | 79 | 1009.4 |
| 20260506182023 | 20 | 306 | 0.0 | 1.6 | 0.00 | 0.41 | 0.41 | 79 | 1009.5 |
| 20260506181521 | 20 | 304 | 6.4 | 12.9 | 0.00 | 0.41 | 0.41 | 80 | 1009.5 |
| 20260506181018 | 20 | 304 | 3.2 | 3.2 | 0.00 | 0.41 | 0.41 | 80 | 1009.7 |
| 20260506180514 | 20 | 304 | 1.6 | 3.2 | 0.00 | 0.41 | 0.41 | 81 | 1009.6 |
| 20260506180010 | 20 | 304 | 11.3 | 17.7 | 0.00 | 0.41 | 0.41 | 80 | 1009.8 |
| 20260506175507 | 20 | 304 | 3.2 | 3.2 | 0.00 | 0.41 | 0.41 | 81 | 1009.8 |
| 20260506175004 | 20 | 304 | 0.0 | 1.6 | 0.00 | 0.41 | 0.41 | 82 | 1009.7 |
| 20260506174502 | 20 | 304 | 3.2 | 4.8 | 0.00 | 0.41 | 0.41 | 83 | 1009.8 |
| 20260506173958 | 19 | 304 | 6.4 | 11.3 | 0.00 | 0.41 | 0.41 | 82 | 1010.0 |
| 20260506173456 | 19 | 304 | 0.0 | 1.6 | 0.00 | 0.41 | 0.41 | 83 | 1009.9 |
| 20260506172952 | 19 | 304 | 1.6 | 1.6 | 0.00 | 0.41 | 0.41 | 83 | 1009.6 |
| 20260506172450 | 18 | 304 | 1.6 | 3.2 | 0.00 | 0.41 | 0.41 | 85 | 1009.9 |
| 20260506171946 | 18 | 304 | 6.4 | 8.0 | 0.00 | 0.41 | 0.41 | 85 | 1009.8 |
| 20260506171443 | 18 | 304 | 4.8 | 11.3 | 0.00 | 0.41 | 0.41 | 85 | 1010.4 |
| 20260506170941 | 18 | 304 | 12.9 | 17.7 | 0.00 | 0.41 | 0.41 | 84 | 1009.9 |
| 20260506170437 | 18 | 304 | 4.8 | 8.0 | 0.00 | 0.41 | 0.41 | 85 | 1010.1 |
| 20260506165931 | 18 | 304 | 6.4 | 11.3 | 0.00 | 0.41 | 0.41 | 86 | 1010.0 |
| 20260506165429 | 18 | 304 | 3.2 | 3.2 | 0.00 | 0.41 | 0.41 | 88 | 1010.0 |
| 20260506164924 | 18 | 304 | 1.6 | 3.2 | 0.00 | 0.41 | 0.41 | 90 | 1010.0 |
| 20260506164420 | 17 | 304 | 1.6 | 3.2 | 0.00 | 0.41 | 0.41 | 93 | 1010.1 |
| 20260506163914 | 17 | 304 | 4.8 | 11.3 | 0.00 | 0.41 | 0.41 | 94 | 1010.2 |
| 20260506163408 | 17 | 304 | 0.0 | 1.6 | 0.00 | 0.41 | 0.41 | 95 | 1010.1 |
| 20260506162903 | 17 | 304 | 1.6 | 3.2 | 0.00 | 0.41 | 0.41 | 95 | 1010.0 |
| 20260506162401 | 17 | 304 | 3.2 | 4.8 | 0.00 | 0.41 | 0.41 | 96 | 1010.1 |
| 20260506161858 | 17 | 304 | 0.0 | 0.0 | 0.00 | 0.41 | 0.41 | 95 | 1010.3 |
| 20260506161356 | 17 | 304 | 1.6 | 1.6 | 0.00 | 0.41 | 0.41 | 97 | 1009.9 |
| 20260506160853 | 16 | 304 | 3.2 | 4.8 | 0.00 | 0.41 | 0.41 | 96 | 1010.2 |
| 20260506160350 | 16 | 304 | 6.4 | 9.7 | 0.00 | 0.41 | 0.41 | 97 | 1010.4 |
| 20260506155848 | 16 | 304 | 3.2 | 3.2 | 0.13 | 0.41 | 0.41 | 97 | 1010.6 |
| 20260506155344 | 16 | 304 | 0.0 | 1.6 | 0.13 | 0.41 | 0.41 | 97 | 1010.5 |
| 20260506153502 | 16 | 304 | 0.0 | 1.6 | 0.18 | 0.38 | 0.38 | 97 | 1010.5 |
| 20260506152959 | 16 | 304 | 1.6 | 3.2 | 0.13 | 0.36 | 0.36 | 97 | 1010.4 |
| 20260506152456 | 16 | 304 | 0.0 | 0.0 | 0.30 | 0.36 | 0.36 | 97 | 1010.7 |
| 20260506151954 | 16 | 304 | 0.0 | 1.6 | 0.18 | 0.33 | 0.33 | 97 | 1011.0 |
| 20260506151452 | 16 | 304 | 0.0 | 1.6 | 0.13 | 0.30 | 0.30 | 97 | 1011.2 |
| 20260506150949 | 16 | 304 | 0.0 | 1.6 | 0.13 | 0.30 | 0.30 | 97 | 1011.3 |
| 20260506150445 | 16 | 304 | 3.2 | 3.2 | 0.00 | 0.28 | 0.28 | 96 | 1011.4 |
| 20260506145942 | 16 | 304 | 0.0 | 0.0 | 0.00 | 0.28 | 0.28 | 96 | 1011.4 |
| 20260506145438 | 16 | 306 | 0.0 | 1.6 | 0.00 | 0.28 | 0.28 | 96 | 1011.5 |
| 20260506144936 | 16 | 311 | 0.0 | 0.0 | 0.18 | 0.28 | 0.28 | 96 | 1011.4 |
| 20260506144432 | 16 | 317 | 0.0 | 1.6 | 0.61 | 0.28 | 0.28 | 95 | 1011.4 |
| 20260506143931 | 16 | 327 | 0.0 | 1.6 | 0.79 | 0.25 | 0.25 | 94 | 1011.5 |
| 20260506143427 | 16 | 338 | 1.6 | 1.6 | 0.61 | 0.20 | 0.20 | 93 | 1011.5 |
| 20260506142926 | 16 | 350 | 3.2 | 4.8 | 0.48 | 0.15 | 0.15 | 92 | 1011.4 |
| 20260506142423 | 16 | 1 | 0.0 | 1.6 | 0.18 | 0.10 | 0.10 | 91 | 1011.1 |
| 20260506141921 | 16 | 18 | 1.6 | 3.2 | 0.13 | 0.08 | 0.08 | 89 | 1011.4 |
| 20260506141419 | 16 | 52 | 1.6 | 3.2 | 0.13 | 0.08 | 0.08 | 88 | 1011.2 |
| 20260506140918 | 16 | 81 | 1.6 | 1.6 | 0.00 | 0.05 | 0.05 | 88 | 1011.4 |
| 20260506140414 | 16 | 97 | 1.6 | 3.2 | 0.18 | 0.05 | 0.05 | 88 | 1011.3 |
| 20260506135911 | 17 | 109 | 0.0 | 0.0 | 0.18 | 0.05 | 0.05 | 87 | 1011.5 |
| 20260506135408 | 17 | 115 | 1.6 | 1.6 | 0.13 | 0.03 | 0.03 | 85 | 1011.5 |
| 20260506134904 | 17 | 120 | 0.0 | 1.6 | 0.13 | 0.03 | 0.03 | 83 | 1011.4 |
| 20260506134400 | 17 | 123 | 1.6 | 3.2 | 0.00 | 0.00 | 0.00 | 82 | 1011.8 |
| 20260506133857 | 17 | 124 | 0.0 | 1.6 | 0.00 | 0.00 | 0.00 | 82 | 1011.7 |
| 20260506133353 | 17 | 124 | 1.6 | 1.6 | 0.00 | 0.00 | 0.00 | 82 | 1011.7 |
| 20260506132850 | 18 | 124 | 1.6 | 1.6 | 0.00 | 0.00 | 0.00 | 81 | 1011.6 |
| 20260506132348 | 18 | 124 | 1.6 | 1.6 | 0.00 | 0.00 | 0.00 | 80 | 1011.5 |
| 20260506131846 | 18 | 124 | 0.0 | 0.0 | 0.00 | 0.00 | 0.00 | 79 | 1011.2 |
| 20260506131342 | 18 | 124 | 3.2 | 3.2 | 0.00 | 0.00 | 0.00 | 79 | 1011.3 |
| 20260506130839 | 18 | 124 | 1.6 | 1.6 | 0.00 | 0.00 | 0.00 | 79 | 1011.2 |
| 20260506130335 | 18 | 124 | 0.0 | 0.0 | 0.00 | 0.00 | 0.00 | 79 | 1011.1 |
| 20260506125833 | 18 | 124 | 0.0 | 1.6 | 0.00 | 0.00 | 0.00 | 79 | 1011.1 |
| 20260506125331 | 18 | 124 | 3.2 | 4.8 | 0.00 | 0.00 | 0.00 | 78 | 1010.9 |
| 20260506124830 | 18 | 124 | 1.6 | 1.6 | 0.00 | 0.00 | 0.00 | 78 | 1011.0 |
| 20260506124326 | 18 | 124 | 1.6 | 3.2 | 0.00 | 0.00 | 0.00 | 77 | 1011.1 |
| 20260506123824 | 18 | 124 | 1.6 | 1.6 | 0.00 | 0.00 | 0.00 | 77 | 1011.2 |
| 20260506123322 | 18 | 124 | 0.0 | 0.0 | 0.00 | 0.00 | 0.00 | 77 | 1011.1 |
| 20260506122819 | 18 | 124 | 3.2 | 4.8 | 0.00 | 0.00 | 0.00 | 77 | 1011.2 |
| 20260506122316 | 18 | 124 | 0.0 | 1.6 | 0.00 | 0.00 | 0.00 | 77 | 1011.4 |
| 20260506121814 | 18 | 124 | 0.0 | 1.6 | 0.00 | 0.00 | 0.00 | 77 | 1011.4 |
| 20260506121311 | 18 | 124 | 1.6 | 3.2 | 0.00 | 0.00 | 0.00 | 76 | 1011.2 |
| 20260506120808 | 18 | 124 | 3.2 | 4.8 | 0.00 | 0.00 | 0.00 | 76 | 1011.3 |
| 20260506120306 | 18 | 124 | 1.6 | 3.2 | 0.00 | 0.00 | 0.00 | 76 | 1011.4 |
| 20260506115803 | 18 | 125 | 8.0 | 11.3 | 0.00 | 0.00 | 0.00 | 76 | 1011.4 |